La Plata, MO

6:03 PM CDT on August 28, 2016 (GMT -0500)
Kirksville Regional

Weather History for KIRK - September, 2012

Change the Weather History Date:

Sunday, September 16, 2012

  Actual Average Record
Temperature  
Mean Temperature 59 °F 64 °F  
Max Temperature 74 °F 76 °F 94 °F (1931)
Min Temperature 44 °F 53 °F 35 °F (1984)
Degree Days  
Heating Degree Days 6 3  
Month to date heating degree days 34 26  
Since 1 July heating degree days 41 33  
Cooling Degree Days 0 2  
Month to date cooling degree days 84 62  
Year to date cooling degree days 1296 906  
Growing Degree Days 9 (Base 50)    
Moisture  
Dew Point 55 °F    
Average Humidity 81    
Maximum Humidity 100    
Minimum Humidity 61    
Precipitation  
Precipitation 0.00 in 0.13 in 1.97 in (1942)
Month to date precipitation 2.42 2.38  
Year to date precipitation 20.25 29.79  
Sea Level Pressure  
Sea Level Pressure 30.06 in    
Wind  
Wind Speed 2 mph (SSW)    
Max Wind Speed 8 mph    
Max Gust Speed 10 mph    
Visibility 8 miles    
Events      
T = Trace of Precipitation, MM = Missing Value Source: NWS Daily Summary

Daily Weather History Graph

Daily Weather History Graph

Search for Another Location

Airport or City:

Trip Planner

Search our weather history database for the weather conditions in past years. The results will help you decide how hot, cold, wet, or windy it might be!

Date:

Astronomy

Sep. 16, 2012 Rise Set
Actual Time 6:52 AM CDT 7:16 PM CDT
Civil Twilight 6:25 AM CDT 7:43 PM CDT
Nautical Twilight 5:53 AM CDT 8:15 PM CDT
Astronomical Twilight 5:20 AM CDT 8:48 PM CDT
Moon 7:32 AM CDT (9/16) 7:21 PM CDT (9/16)
Length of Visible Light 13h 18m
Length of Day
12h 23m
New Moon, 0% of the Moon is Illuminated
Sep 16
New Moon
Sep 22
First Quarter
Sep 29
Full
Oct 8
Last Quarter
Oct 15
New

Hourly Weather History & Observations

Time (CDT) Temp. Dew Point Humidity Pressure Visibility Wind Dir Wind Speed Gust Speed Precip Events Conditions
12:55 AM 46.9 °F 45.0 °F 93% 30.15 in 10.0 mi SSE 3.5 mph - N/A   Clear
1:55 AM 45.0 °F 44.1 °F 97% 30.15 in 10.0 mi Calm Calm - N/A   Clear
2:55 AM 45.0 °F 44.1 °F 97% 30.13 in 10.0 mi Calm Calm - N/A   Clear
3:55 AM 46.0 °F 44.1 °F 93% 30.12 in 10.0 mi Calm Calm - N/A   Clear
4:55 AM 45.0 °F 44.1 °F 97% 30.12 in 9.0 mi Calm Calm - N/A   Clear
5:55 AM 46.9 °F 45.0 °F 93% 30.12 in 5.0 mi Calm Calm - N/A   Clear
6:53 AM 46.4 °F 44.6 °F 93% 30.11 in 2.5 mi Calm Calm - N/A   Clear
6:55 AM 46.0 °F 45.0 °F 96% 30.13 in 3.0 mi Calm Calm - N/A   Clear
7:55 AM 52.0 °F 50.0 °F 93% 30.13 in 7.0 mi Calm Calm - N/A   Clear
8:55 AM 60.1 °F 55.0 °F 83% 30.12 in 10.0 mi Calm Calm - N/A   Clear
9:55 AM 64.9 °F 55.9 °F 73% 30.12 in 10.0 mi South 3.5 mph - N/A   Clear
10:55 AM 66.0 °F 57.0 °F 73% 30.12 in 10.0 mi SSW 4.6 mph - N/A   Clear
11:55 AM 70.0 °F 59.0 °F 68% 30.10 in 10.0 mi SW 3.5 mph - N/A   Partly Cloudy
12:55 PM 71.1 °F 59.0 °F 66% 30.08 in 10.0 mi Calm Calm - N/A   Scattered Clouds
1:03 PM 73.4 °F 60.8 °F 65% 30.07 in 10.0 mi Variable 3.5 mph - N/A   Mostly Cloudy
1:22 PM 73.4 °F 60.8 °F 65% 30.06 in 10.0 mi Variable 3.5 mph - N/A   Mostly Cloudy
1:55 PM 73.0 °F 59.0 °F 61% 30.06 in 10.0 mi South 5.8 mph - N/A   Mostly Cloudy
2:55 PM 72.0 °F 60.1 °F 66% 30.04 in 10.0 mi South 3.5 mph - N/A   Overcast
3:55 PM 73.9 °F 60.1 °F 62% 30.02 in 10.0 mi SSW 4.6 mph - N/A   Mostly Cloudy
4:55 PM 73.0 °F 61.0 °F 66% 30.01 in 10.0 mi WSW 6.9 mph - N/A   Mostly Cloudy
5:55 PM 72.0 °F 61.0 °F 68% 30.00 in 10.0 mi Calm Calm - N/A   Mostly Cloudy
6:55 PM 68.0 °F 61.0 °F 78% 30.00 in 10.0 mi SSW 3.5 mph - N/A   Clear
7:55 PM 62.1 °F 60.1 °F 93% 29.99 in 10.0 mi Calm Calm - N/A   Clear
8:55 PM 57.9 °F 57.9 °F 100% 30.00 in 2.5 mi Calm Calm - N/A   Clear
9:03 PM 57.2 °F 57.2 °F 100% 30.00 in 1.2 mi Calm Calm - N/A   Clear
9:09 PM 57.2 °F 55.4 °F 94% 30.00 in 3.0 mi SW 3.5 mph - N/A   Clear
9:55 PM 57.9 °F 57.0 °F 97% 29.99 in 9.0 mi Calm Calm - N/A   Clear
10:23 PM 57.2 °F 57.2 °F 100% 29.99 in 1.5 mi Calm Calm - N/A   Clear
10:33 PM 57.2 °F 57.2 °F 100% 29.99 in 3.0 mi Calm Calm - N/A   Clear
10:55 PM 57.9 °F 57.0 °F 97% 29.99 in 2.0 mi Calm Calm - N/A   Clear
11:04 PM 59.0 °F 59.0 °F 100% 29.99 in 7.0 mi Calm Calm - N/A   Clear
11:55 PM 57.9 °F 57.9 °F 100% 29.99 in 5.0 mi South 3.5 mph - N/A   Clear